{"data":{"norad_id":67724,"intl_designator":"2026-026D","name":"STARLINK-36752","alt_names":[],"object_type":"PAYLOAD","status":"ACTIVE","operator":null,"country":"US","launch_date":"2026-02-11","launch_site_code":"AFWTR","launch_vehicle":null,"mission":null,"orbit_class":"UNKNOWN","rcs_meters":null,"size_class":null,"mass_kg":null,"dimensions":null,"purposes":["comms"],"wikipedia_slug":null,"has_3d_model":false,"image_url":null,"decayed_at":null,"tle_current":{"epoch":"2026-09-19T21:22:45.361056Z","epoch_age_seconds":119106,"freshness":"FRESH","line1":"1 67724U 26026D   26262.89080279  .00010239  00000+0  31898-3 0  9999","line2":"2 67724  97.2858 314.6764 0000753  95.4773 264.6556 15.33452966 33888","mean_motion":15.33452966,"eccentricity":7.53e-5,"inclination_deg":97.2858,"raan_deg":314.6764,"arg_perigee_deg":95.4773,"mean_anomaly_deg":264.6556,"bstar":0.00031898,"rev_number":3388,"period_min":93.905716831748,"perigee_km":465.00414603685,"apogee_km":466.03480070174,"semimajor_km":6843.6564733693,"source":"CELESTRAK","updated_at":"2026-09-20T09:00:43.656885Z"}}}